Time,TemperatureF,DewpointF,PressureIn,WindDirection,WindDirectionDegrees,WindSpeedMPH,WindSpeedGustMPH,Humidity,HourlyPrecipIn,Conditions,Clouds,dailyrainin,SoftwareType,DateUTC
2013-05-29 00:05:00,67.8,64.0,29.78,NE,49,2.0,7.0,88,0.01,,,0.06,weatherlink.com 1.10,2013-05-29 05:05:00,
2013-05-29 00:20:00,67.7,64.0,29.78,North,11,2.0,6.0,88,0.01,,,0.00,weatherlink.com 1.10,2013-05-29 05:20:00,
2013-05-29 00:35:00,67.7,65.0,29.78,North,355,0.0,5.0,90,0.00,,,0.00,weatherlink.com 1.10,2013-05-29 05:35:00,
2013-05-29 00:50:00,68.2,65.0,29.78,ENE,63,2.0,4.0,90,0.00,,,0.00,weatherlink.com 1.10,2013-05-29 05:50:00,
2013-05-29 01:05:00,68.3,65.0,29.75,ESE,111,1.0,4.0,90,0.00,,,0.00,weatherlink.com 1.10,2013-05-29 06:05:00,
2013-05-29 01:20:00,68.3,66.0,29.74,NNE,30,1.0,3.0,91,0.00,,,0.00,weatherlink.com 1.10,2013-05-29 06:20:00,
2013-05-29 01:35:00,68.1,65.0,29.75,SSE,159,2.0,4.0,91,0.00,,,0.00,weatherlink.com 1.10,2013-05-29 06:35:00,
2013-05-29 01:50:00,67.9,65.0,29.77,NW,314,0.0,3.0,91,0.00,,,0.00,weatherlink.com 1.10,2013-05-29 06:50:00,
2013-05-29 02:05:00,67.6,65.0,29.80,West,266,2.0,5.0,91,0.00,,,0.00,weatherlink.com 1.10,2013-05-29 07:05:00,
2013-05-29 02:20:00,67.4,65.0,29.79,NW,309,0.0,6.0,90,0.00,,,0.00,weatherlink.com 1.10,2013-05-29 07:20:00,
2013-05-29 02:35:00,66.9,64.0,29.79,WSW,237,1.0,3.0,91,0.00,,,0.00,weatherlink.com 1.10,2013-05-29 07:35:00,
2013-05-29 02:50:00,66.3,64.0,29.78,South,182,0.0,2.0,92,0.00,,,0.00,weatherlink.com 1.10,2013-05-29 07:50:00,
2013-05-29 03:05:00,65.6,63.0,29.77,SSE,148,0.0,1.0,92,0.00,,,0.00,weatherlink.com 1.10,2013-05-29 08:05:00,
2013-05-29 03:20:00,65.1,63.0,29.79,South,188,0.0,1.0,93,0.00,,,0.00,weatherlink.com 1.10,2013-05-29 08:20:00,
2013-05-29 03:35:00,64.7,63.0,29.79,South,184,1.0,3.0,93,0.00,,,0.00,weatherlink.com 1.10,2013-05-29 08:35:00,
2013-05-29 03:50:00,64.4,62.0,29.78,East,101,0.0,3.0,93,0.00,,,0.00,weatherlink.com 1.10,2013-05-29 08:50:00,
2013-05-29 04:05:00,64.5,62.0,29.79,NW,320,2.0,3.0,92,0.00,,,0.00,weatherlink.com 1.10,2013-05-29 09:05:00,
2013-05-29 04:20:00,64.3,62.0,29.82,West,274,2.0,4.0,92,0.00,,,0.00,weatherlink.com 1.10,2013-05-29 09:20:00,
2013-05-29 04:35:00,64.2,62.0,29.84,WNW,284,2.0,9.0,92,0.00,,,0.00,weatherlink.com 1.10,2013-05-29 09:35:00,
2013-05-29 04:50:00,64.5,62.0,29.83,NW,321,0.0,3.0,92,0.00,,,0.00,weatherlink.com 1.10,2013-05-29 09:50:00,
2013-05-29 05:05:00,64.7,62.0,29.86,NW,311,0.0,4.0,91,0.00,,,0.00,weatherlink.com 1.10,2013-05-29 10:05:00,
2013-05-29 05:20:00,64.8,62.0,29.87,NNE,32,3.0,3.0,90,0.00,,,0.00,weatherlink.com 1.10,2013-05-29 10:20:00,
2013-05-29 05:35:00,65.1,62.0,29.86,NNW,335,1.0,7.0,89,0.00,,,0.00,weatherlink.com 1.10,2013-05-29 10:35:00,
2013-05-29 05:50:00,65.0,61.0,29.86,West,267,1.0,6.0,88,0.00,,,0.00,weatherlink.com 1.10,2013-05-29 10:50:00,
2013-05-29 06:05:00,64.6,62.0,29.82,ESE,119,2.0,4.0,90,0.01,,,0.01,weatherlink.com 1.10,2013-05-29 11:05:00,
2013-05-29 06:20:00,64.2,62.0,29.82,SSE,152,1.0,3.0,91,0.01,,,0.01,weatherlink.com 1.10,2013-05-29 11:20:00,
2013-05-29 06:35:00,63.7,62.0,29.81,SSE,152,0.0,0.0,93,0.01,,,0.01,weatherlink.com 1.10,2013-05-29 11:35:00,
2013-05-29 06:51:00,63.5,62.0,29.81,SSE,152,0.0,2.0,94,0.01,,,0.01,weatherlink.com 1.10,2013-05-29 11:51:00,
2013-05-29 07:06:00,63.5,62.0,29.84,SSE,152,2.0,2.0,95,0.00,,,0.01,weatherlink.com 1.10,2013-05-29 12:06:00,
2013-05-29 07:21:00,63.6,62.0,29.85,SSE,152,0.0,0.0,95,0.00,,,0.01,weatherlink.com 1.10,2013-05-29 12:21:00,
2013-05-29 07:36:00,63.6,62.0,29.89,NNW,329,0.0,9.0,95,0.00,,,0.01,weatherlink.com 1.10,2013-05-29 12:36:00,
2013-05-29 07:51:00,63.9,63.0,29.92,West,267,0.0,4.0,95,0.00,,,0.01,weatherlink.com 1.10,2013-05-29 12:51:00,
2013-05-29 08:06:00,64.1,63.0,29.92,West,264,0.0,4.0,95,0.00,,,0.01,weatherlink.com 1.10,2013-05-29 13:06:00,
2013-05-29 08:21:00,64.4,63.0,29.92,West,264,0.0,1.0,95,0.00,,,0.01,weatherlink.com 1.10,2013-05-29 13:21:00,
2013-05-29 08:36:00,64.3,63.0,29.92,NW,306,1.0,2.0,95,0.01,,,0.02,weatherlink.com 1.10,2013-05-29 13:36:00,
2013-05-29 08:51:00,64.5,63.0,29.92,NW,306,1.0,2.0,95,0.02,,,0.03,weatherlink.com 1.10,2013-05-29 13:51:00,
2013-05-29 09:06:00,65.0,64.0,29.91,NW,306,0.0,2.0,95,0.02,,,0.03,weatherlink.com 1.10,2013-05-29 14:06:00,
2013-05-29 09:21:00,66.1,65.0,29.91,WNW,293,0.0,1.0,95,0.02,,,0.03,weatherlink.com 1.10,2013-05-29 14:21:00,
2013-05-29 09:36:00,67.2,64.0,29.91,ESE,121,0.0,3.0,89,0.01,,,0.03,weatherlink.com 1.10,2013-05-29 14:36:00,
2013-05-29 09:51:00,68.1,64.0,29.92,ESE,118,0.0,3.0,87,0.00,,,0.03,weatherlink.com 1.10,2013-05-29 14:51:00,
2013-05-29 10:06:00,69.4,65.0,29.91,ESE,117,1.0,5.0,86,0.00,,,0.03,weatherlink.com 1.10,2013-05-29 15:06:00,
2013-05-29 10:21:00,70.1,65.0,29.91,SE,124,0.0,3.0,83,0.00,,,0.03,weatherlink.com 1.10,2013-05-29 15:21:00,
2013-05-29 10:36:00,71.0,64.0,29.91,ESE,117,1.0,4.0,78,0.00,,,0.03,weatherlink.com 1.10,2013-05-29 15:36:00,
2013-05-29 10:51:00,72.1,66.0,29.91,SW,232,2.0,4.0,81,0.00,,,0.03,weatherlink.com 1.10,2013-05-29 15:51:00,
2013-05-29 11:06:00,73.3,66.0,29.91,SE,132,0.0,6.0,77,0.00,,,0.03,weatherlink.com 1.10,2013-05-29 16:06:00,
2013-05-29 11:21:00,74.6,66.0,29.91,SE,142,3.0,4.0,75,0.00,,,0.03,weatherlink.com 1.10,2013-05-29 16:21:00,
2013-05-29 11:36:00,75.7,66.0,29.91,North,360,1.0,6.0,73,0.00,,,0.03,weatherlink.com 1.10,2013-05-29 16:36:00,
2013-05-29 11:51:00,75.9,66.0,29.91,NE,44,1.0,7.0,71,0.00,,,0.03,weatherlink.com 1.10,2013-05-29 16:51:00,
2013-05-29 12:06:00,76.7,68.0,29.90,ESE,103,2.0,7.0,75,0.00,,,0.03,weatherlink.com 1.10,2013-05-29 17:06:00,
2013-05-29 12:21:00,76.4,67.0,29.90,ESE,110,1.0,6.0,73,0.00,,,0.03,weatherlink.com 1.10,2013-05-29 17:21:00,
2013-05-29 12:36:00,76.2,68.0,29.90,SE,134,1.0,10.0,75,0.00,,,0.03,weatherlink.com 1.10,2013-05-29 17:36:00,
2013-05-29 12:51:00,76.9,68.0,29.89,SE,141,1.0,9.0,74,0.00,,,0.03,weatherlink.com 1.10,2013-05-29 17:51:00,
2013-05-29 13:06:00,77.4,69.0,29.89,SE,131,2.0,5.0,75,0.00,,,0.03,weatherlink.com 1.10,2013-05-29 18:06:00,
2013-05-29 13:21:00,78.7,70.0,29.90,SE,132,1.0,4.0,74,0.00,,,0.03,weatherlink.com 1.10,2013-05-29 18:21:00,
2013-05-29 13:36:00,78.9,70.0,29.89,South,185,3.0,5.0,74,0.00,,,0.03,weatherlink.com 1.10,2013-05-29 18:36:00,
2013-05-29 13:51:00,79.6,70.0,29.89,SE,126,3.0,8.0,72,0.00,,,0.03,weatherlink.com 1.10,2013-05-29 18:51:00,
2013-05-29 14:06:00,79.9,71.0,29.89,SE,142,1.0,5.0,73,0.00,,,0.03,weatherlink.com 1.10,2013-05-29 19:06:00,
2013-05-29 14:21:00,79.9,70.0,29.88,ESE,107,8.0,9.0,72,0.00,,,0.03,weatherlink.com 1.10,2013-05-29 19:21:00,
2013-05-29 14:36:00,80.0,71.0,29.88,SW,217,0.0,5.0,73,0.00,,,0.03,weatherlink.com 1.10,2013-05-29 19:36:00,
2013-05-29 14:51:00,80.9,70.0,29.87,SE,132,2.0,5.0,70,0.00,,,0.03,weatherlink.com 1.10,2013-05-29 19:51:00,
2013-05-29 15:06:00,81.5,70.0,29.88,SW,218,0.0,5.0,67,0.00,,,0.03,weatherlink.com 1.10,2013-05-29 20:06:00,
2013-05-29 15:22:00,81.9,70.0,29.87,ENE,69,2.0,4.0,68,0.00,,,0.03,weatherlink.com 1.10,2013-05-29 20:22:00,
2013-05-29 15:37:00,81.6,70.0,29.86,South,186,4.0,9.0,68,0.00,,,0.03,weatherlink.com 1.10,2013-05-29 20:37:00,
2013-05-29 15:52:00,81.5,70.0,29.86,ESE,115,1.0,5.0,69,0.00,,,0.03,weatherlink.com 1.10,2013-05-29 20:52:00,
2013-05-29 16:07:00,81.6,70.0,29.85,SE,132,2.0,7.0,68,0.00,,,0.03,weatherlink.com 1.10,2013-05-29 21:07:00,
2013-05-29 16:22:00,82.4,70.0,29.84,ESE,106,5.0,10.0,67,0.00,,,0.03,weatherlink.com 1.10,2013-05-29 21:22:00,
2013-05-29 16:37:00,82.7,71.0,29.84,SE,130,3.0,6.0,68,0.00,,,0.03,weatherlink.com 1.10,2013-05-29 21:37:00,
2013-05-29 16:52:00,82.3,70.0,29.84,SE,132,2.0,6.0,67,0.00,,,0.03,weatherlink.com 1.10,2013-05-29 21:52:00,
2013-05-29 17:07:00,82.9,69.0,29.83,SE,140,5.0,8.0,64,0.00,,,0.03,weatherlink.com 1.10,2013-05-29 22:07:00,
2013-05-29 17:22:00,82.9,68.0,29.82,SE,124,3.0,10.0,61,0.00,,,0.03,weatherlink.com 1.10,2013-05-29 22:22:00,
2013-05-29 17:37:00,83.0,69.0,29.82,SE,140,4.0,9.0,62,0.00,,,0.03,weatherlink.com 1.10,2013-05-29 22:37:00,
2013-05-29 17:52:00,82.8,68.0,29.82,ESE,104,2.0,8.0,61,0.00,,,0.03,weatherlink.com 1.10,2013-05-29 22:52:00,
2013-05-29 18:07:00,82.7,69.0,29.82,SE,132,2.0,6.0,63,0.00,,,0.03,weatherlink.com 1.10,2013-05-29 23:07:00,
2013-05-29 18:22:00,82.4,69.0,29.83,SSW,193,3.0,8.0,63,0.00,,,0.03,weatherlink.com 1.10,2013-05-29 23:22:00,
2013-05-29 18:37:00,81.5,68.0,29.84,SSE,159,1.0,8.0,64,0.00,,,0.03,weatherlink.com 1.10,2013-05-29 23:37:00,
2013-05-29 18:52:00,80.8,68.0,29.84,SE,128,1.0,6.0,66,0.00,,,0.03,weatherlink.com 1.10,2013-05-29 23:52:00,
2013-05-29 19:07:00,80.3,69.0,29.84,SE,146,3.0,6.0,68,0.00,,,0.03,weatherlink.com 1.10,2013-05-30 00:07:00,
2013-05-29 19:22:00,80.0,69.0,29.84,SSE,147,2.0,4.0,68,0.00,,,0.03,weatherlink.com 1.10,2013-05-30 00:22:00,
2013-05-29 19:37:00,79.6,69.0,29.84,ESE,120,1.0,4.0,70,0.00,,,0.03,weatherlink.com 1.10,2013-05-30 00:37:00,
2013-05-29 19:52:00,79.1,69.0,29.84,SSE,147,2.0,5.0,71,0.00,,,0.03,weatherlink.com 1.10,2013-05-30 00:52:00,
2013-05-29 20:07:00,78.7,69.0,29.84,SE,134,2.0,4.0,71,0.00,,,0.03,weatherlink.com 1.10,2013-05-30 01:07:00,
2013-05-29 20:22:00,78.0,68.0,29.83,SE,133,2.0,3.0,72,0.00,,,0.03,weatherlink.com 1.10,2013-05-30 01:22:00,
2013-05-29 20:37:00,77.4,68.0,29.83,SE,141,1.0,3.0,73,0.00,,,0.03,weatherlink.com 1.10,2013-05-30 01:37:00,
2013-05-29 20:52:00,77.0,68.0,29.83,SE,138,2.0,4.0,74,0.00,,,0.03,weatherlink.com 1.10,2013-05-30 01:52:00,
2013-05-29 21:07:00,76.7,68.0,29.83,SE,126,2.0,5.0,75,0.00,,,0.03,weatherlink.com 1.10,2013-05-30 02:07:00,
2013-05-29 21:22:00,76.4,68.0,29.83,SE,128,3.0,5.0,76,0.00,,,0.03,weatherlink.com 1.10,2013-05-30 02:22:00,
2013-05-29 21:37:00,76.2,68.0,29.84,SSE,150,4.0,5.0,76,0.00,,,0.03,weatherlink.com 1.10,2013-05-30 02:37:00,
2013-05-29 21:52:00,76.3,68.0,29.84,SSE,159,2.0,7.0,76,0.00,,,0.03,weatherlink.com 1.10,2013-05-30 02:52:00,
2013-05-29 22:07:00,76.2,69.0,29.85,ESE,115,2.0,5.0,77,0.00,,,0.03,weatherlink.com 1.10,2013-05-30 03:07:00,
2013-05-29 22:22:00,76.1,68.0,29.85,SSE,149,0.0,7.0,77,0.00,,,0.03,weatherlink.com 1.10,2013-05-30 03:22:00,
2013-05-29 22:37:00,75.8,69.0,29.87,SE,136,2.0,6.0,78,0.00,,,0.03,weatherlink.com 1.10,2013-05-30 03:37:00,
2013-05-29 22:52:00,75.4,69.0,29.87,SSE,154,3.0,6.0,79,0.00,,,0.03,weatherlink.com 1.10,2013-05-30 03:52:00,
2013-05-29 23:07:00,75.1,68.0,29.87,SSE,157,3.0,5.0,79,0.00,,,0.03,weatherlink.com 1.10,2013-05-30 04:07:00,
2013-05-29 23:22:00,74.8,68.0,29.88,SSE,155,2.0,8.0,80,0.00,,,0.03,weatherlink.com 1.10,2013-05-30 04:22:00,
2013-05-29 23:37:00,74.4,68.0,29.88,SE,141,2.0,4.0,81,0.00,,,0.03,weatherlink.com 1.10,2013-05-30 04:37:00,
2013-05-29 23:52:00,73.9,68.0,29.88,SE,142,3.0,5.0,82,0.00,,,0.03,weatherlink.com 1.10,2013-05-30 04:52:00,